Regional Weather Roundup
Issued by NWS Wakefield, VA

Home | Current Version | Previous Version | Graphics & Text | Print | Product List | Glossary On
Versions: 1 2 3 4 5 6 7 8 9 10 11 12 13 14 15 16 17 18 19 20 21 22 23 24 25 26 27
000
ASUS41 KAKQ 240015
RWRAKQ

REGIONAL WEATHER ROUNDUP
NATIONAL WEATHER SERVICE WAKEFIELD VA
800 PM EDT THU MAR 23 2017

Note: "fair" indicates few or no clouds below 12,000 feet with no
significant weather and/or obstructions to visibility. * = Denotes
station may not report precipitation (e.g., rain,snow,etc.),
thunder or fog.

VAZ042-051-052>054-056-240100-
NORTHERN VIRGINIA

CITY           SKY/WX    TMP DP  RH WIND       PRES   REMARKS
WASH NATIONAL  PTCLDY    45  13  27 S7        30.53S
DULLES         PTCLDY    42   9  25 SE7       30.49F
FORT BELVOIR   CLEAR     42  12  29 SE5       30.51F
QUANTICO       CLEAR     44  22  41 SE10      30.54S
FREDERICKSBRG* CLEAR     46  18  33 SE6       30.52S
STAFFORD*      CLEAR     40  18  40 E6        30.56S
WARRENTON      CLEAR     41  11  29 SE5       30.49F
CULPEPER*      CLEAR     41  19  40 CALM      30.50F
MANASSAS*      CLEAR     39  15  37 SE7       30.50F
LEESBURG*      CLEAR     46  16  29 S6        30.49F
WINCHESTER     CLEAR     41  14  33 SE3       30.45S
FRONT ROYAL*     N/A     45  14  29 MISG        N/A
LURAY*         CLEAR     45  19  36 S5        30.44S
$$

VAZ048-049-060>072-079>083-240100-
CENTRAL AND SOUTH CENTRAL VIRGINIA

CITY           SKY/WX    TMP DP  RH WIND       PRES   REMARKS
RICHMOND       CLEAR     43  16  33 E3        30.53S
CHESTERFIELD*  FAIR      43  10  26 CALM      30.53F
PETERSBURG*    CLEAR     35  24  62 CALM      30.53F
HANOVER        CLEAR     39  21  48 CALM      30.53F
TAPPAHANNOCK*  CLEAR     40   1  18 E6        30.55S
QUINTON*       FAIR      42  17  36 CALM      30.53F
CHARLOTTSVILLE CLEAR     46  14  27 S6        30.48S
GORDONSVILLE*  CLEAR     43  17  34 CALM      30.49S
ORANGE*        CLEAR     43  14  31 CALM      30.50F
LOUISA*        CLEAR     39  25  56 S3        30.49S
BUMPASS*       FAIR      41  17  38 S6        30.51S
FARMVILLE*     CLEAR     45  22  40 CALM      30.49S
CREWE*         FAIR      41  22  46 CALM      30.51S
FORT PICKETT*  FAIR      43   8  23 CALM      30.51S
CHASE CITY*    FAIR      42  21  43 CALM      30.50F
CLARKSVILLE*   FAIR      43  23  45 E3        30.50S
SOUTH HILL*    CLEAR     40  24  52 CALM      30.57S
LAWRENCEVILLE* FAIR      42  22  45 MISG      30.52S
EMPORIA*       CLEAR     36  25  64 CALM      30.55S
$$

VAZ088>098-240100-
SOUTHEAST VIRGINIA

CITY           SKY/WX    TMP DP  RH WIND       PRES   REMARKS
NORFOLK        CLEAR     38  22  52 SE6       30.58S
VIRGINIA BEACH CLEAR     34  20  56 SE5       30.58S
NORFOLK NAVAL  CLEAR     37  22  54 SE6       30.59S
WEST POINT*    CLEAR     37  15  41 E6        30.57S
SALUDA*        FAIR      37  12  35 CALM      30.57S
NEWPORT NEWS   CLEAR     36  20  52 E6        30.57S
LANGLEY AFB    CLEAR     38  22  52 SE6       30.57S
FORT EUSTIS    CLEAR     38  17  42 E3        30.54S
WILLIAMSBURG*  CLEAR     39  23  52 CALM      30.56F
HR EXEC AP*    FAIR      37  21  52 E6        30.56S
FRANKLIN*      CLEAR     40  17  39 E6        30.56F
US460-WAKEFLD  CLEAR     41  20  43 E3        30.55S
$$

VAZ020-022-025-037-045-240100-
WEST CENTRAL AND SOUTHWEST VIRGINIA

CITY           SKY/WX    TMP DP  RH WIND       PRES   REMARKS
STAUNTON*      CLEAR     43  15  31 S6        30.46S
WAYNESBORO*    CLEAR     43  15  33 S5        30.45S
HOT SPRINGS VA CLEAR     36   9  32 S7        30.38S
LYNCHBURG      CLEAR     43  20  39 SE3       30.48F
DANVILLE       CLEAR     43  25  49 CALM      30.48F
SOUTH BOSTON*  FAIR      47  16  28 CALM      30.50S
MARTINSVILLE   CLEAR     45  19  34 CALM      30.48S
ROANOKE        CLEAR     48  16  27 SE10      30.46F
BLACKSBURG     CLEAR     48  19  31 SE5       30.45S
DUBLIN*        CLEAR     49  19  31 S6        30.43S
MARION*        CLEAR     49  20  31 E5        30.41R
HILLSVILLE*    CLEAR     44  21  40 CALM      30.41S
RICHLANDS*     FAIR      56  28  33 CALM      30.33S
WISE*          CLEAR     55  27  33 CALM      30.34S
ABINGDON*      CLEAR     59  30  33 CALM      30.33S
$$

MDZ021>025-VAZ099-100-240100-
SOUTHERN MARYLAND AND THE DELMARVA PENINSULA

CITY           SKY/WX    TMP DP  RH WIND       PRES   REMARKS
PATUXENT RIVER PTCLDY    37  17  44 S5        30.55S
BAY BRIDGE APT CLEAR     39  19  45 S6        30.54S
LEONARDTOWN    CLEAR     37  16  41 SE3       30.57R
DOVER          CLEAR     36  25  63 E7        30.54R
GEORGETOWN     CLEAR     36  21  54 SE6       30.56S
EASTON         CLEAR     39  10  30 S3        30.58S
CAMBRIDGE      CLEAR     37  16  41 SE3       30.56R
SALISBURY      CLEAR     34  24  67 SE3       30.56R
OCEAN CITY     CLEAR     35  23  61 SW6       30.57F
WALLOPS ISLAND CLEAR     34  26  72 SW8       30.58S
ACCOMACK*      CLEAR     35  25  66 S5        30.57S
$$

NCZ012>017-030>032-240100-
NORTH CENTRAL AND EASTERN NORTH CAROLINA

CITY           SKY/WX    TMP DP  RH WIND       PRES   REMARKS
ROANOKE RAPIDS FAIR      43  25  49 E3        30.53S
RALEIGH        PTCLDY    49  19  30 SE7       30.50F
ELIZABETH CITY CLEAR     37  25  61 E8        30.59S
AHOSKIE*         N/A     43  24  46 SE5       30.55S
EDENTON*       CLEAR     40  29  64 SE5       30.58S
CURRITUCK*     CLEAR     37  24  60 E3        30.59F
KILL DEVIL HLS NOT AVBL
MANTEO         CLEAR     36  26  65 E8        30.59F
CAPE HATTERAS  CLEAR     41  29  62 NE8       30.57F
TARBORO*       NOT AVBL
GOLDSBORO      CLEAR     47  25  42 CALM      30.52R
WASHINGTON     CLEAR     43  25  49 E5        30.56S
GREENVILLE     CLEAR     46  27  46 SE5       30.54F
NEW BERN       CLEAR     44  32  62 E7        30.57S
WILMINGTON     CLEAR     48  33  56 E6        30.54F
$$

VAZ048-240100-
ELSEWHERE

CITY           SKY/WX    TMP DP  RH WIND       PRES   REMARKS
HARRISBURG PA  PTCLDY    41  22  46 S5        30.49S
BALTIMORE      PTCLDY    39  16  39 SE5       30.52S
ANNAPOLIS      CLEAR     40  21  46 S7        30.54S
ANDREWS AFB    CLEAR     39  19  44 SE8       30.51S
PHILADELPHIA   PTCLDY    43   7  22 W7        30.53S
HENDERSON NC   CLEAR     45  17  33 SE5       30.51S
GREENSBORO     PTCLDY    48  20  32 S7        30.46S
ROCKY MOUNT    CLEAR     43  25  49 E3        30.53F
$$

VAZ100-240100-
MARINE

STATION/POSITION TIME  TEMP    WIND        PRES    WAVE   SWELL
                       AIR SEA DIR/SP/G            HT/PER HT/PER
                 (UTC) (F)     (DEG/KT/KT) (MB)    (FT/S) (FT/S)
CAPE MAY NJ      2348   36 43  180/  3/  4 1034.7R
LEWES DE         2348   35 43  180/  4/  7 1034.9F
OCEAN-CITY-INLET 2348   37 43  190/  6/  8 1035.5F
WACHAPREAGUE VA  2348   37 49  190/  6/  8 1035.0F
THOMAS POINT MD  0000   41 44  160/ 10/ 12   N/A
GOOSES REEF MD   2350   42     180/ 14/ 16 1034.7F
COVE POINT MD    2348   40     190/ 12/ 13 1035.1S
SOLOMONS ISLAND  2348   39 45  170/  8/  9   N/A
BISHOPS HEAD MD  2348   39 48  180/  9/ 10 1035.0F
PINEY POINT MD   2348          160/ 11/ 13   N/A
POTOMAC MD       2350   40     170/ 10/ 12 1034.3S
CAMBRIDGE MD     2348   41 44  140/  3/  5 1033.9R
LEWISETTA VA     2348   39 48  170/  7/  8 1034.7R
RAPPAHANNOCK LGT 2348          180/  4/  5 1035.8F
STINGRAY PT      2350   39     190/  6/  8 1035.3F
YORK RVR RNG VA  2348   39     150/ 10/ 11 1034.5F
YORKTOWN VA      2348   40 48  140/  5/  7 1034.9F
JAMESTOWN VA     2350   42     110/  8/ 12   N/A
DOMINION TERM VA 2348   40     110/  8/ 10 1035.3S
KIPTOPEKE VA     2348      47  140/  4/  6   N/A
CHES BAY BRIDGE  2348   38 47  140/  5/  8 1035.5S
CAPE HENRY VA    2348   36     140/  5/  7   N/A
WILLOUBY STN VA  2348   39     120/  8/ 10 1036.1S
S CRANEY ISL VA  2348   40     110/  7/  9 1035.1S
CAPE HENRY BUOY  2342      46                N/A     3/ 7
CAPE CHARLES BUO 2351      46                N/A     2/ 7
OFFSHORE WE BUOY 2351      45                N/A     4/ 7
64NM E OF VA BCH 2350   39 50   30/  8/ 10 1035.4S   5/ 7   5/ 7
DUCK PIER NC     2348   38 48   60/  6/  9 1035.2F
44100 DUCK FRF   2335      47                N/A     4/ 8   2/11
44056 DUCK FRF   0000      47                N/A     4/ 8
OREGON INLET NC  2348           30/  8/ 11   N/A
HATTERAS NC      2348   41 52   40/  9/ 12 1034.8F
DIAMOND SHLS NC  2350   47 73   30/ 12/ 17 1034.9F  10/11  10/11
CAPE LOOKOUT NC  0000   46      30/ 13/ 14 1034.6F
$$




USA.gov is the U.S. government's official web portal to all federal, state and local government web resources and services.